Flag for Germany Weather past 2 weeks in Porta Westfalica, North Rhine-Westphalia, Germany

Now
59 °F

Scattered clouds.


Feels Like: 58 °F
Forecast: 61 / 89 °F
Wind: 7 mph from South

Location: Bueckeburg

Current Time: Aug 5, 2015 at 8:52:48 AM

Latest Report: Aug 5, 2015 at 7:20 AM


Visibility: N/A

Pressure: 30.09 "Hg

Humidity: 88%

Dew point: 55 °F

Location of Porta WestfalicaLocation

Historic Weather in Porta Westfalica — Graph

°F

Porta Westfalica temperature yesterday

Maximum temperature yesterday: 84 °F (at 12:20 PM)
Minimum temperature yesterday: 61 °F (at 11:20 PM)
Average temperature yesterday: 73 °F

Past Weeks' High & Low Weather Summary

 TemperatureHumidityPressure
High88 °F (Aug 3, 2:20 PM)100% (Aug 5, 2:20 AM)30.15 "Hg (Aug 5, 2:20 AM)
Low46 °F (Jul 31, 4:20 AM)26% (Aug 2, 4:20 PM)29.47 "Hg (Jul 25, 12:20 PM)
Average64 °F68%29.88 "Hg
* Reported Jul 21 7:20 AM — Aug 5 7:20 AM, Porta Westfalica, Weather by CustomWeather, © 2015

Note: Actual official high and low records may vary slightly from our data, if they occured in-between our weather recording intervals... More about our weather records

Advertising

Porta Westfalica weather history for previous 24 hours

 ConditionsComfort  
Time TempWeatherWind HumidityBarometerVisibility
7:20 AM
Wed, Aug 5
59 °FScattered clouds.7 mph88%30.09 "HgN/A
6:20 AM59 °FPartly cloudy.6 mph88%30.09 "Hg6 mi
5:20 AM57 °FPassing clouds.5 mph100%30.09 "Hg5 mi
4:20 AM55 °FFog.5 mph100%30.09 "Hg3 mi
3:20 AM57 °FFog.No wind94%30.09 "Hg4 mi
2:20 AM57 °FFog.1 mph100%30.07 "Hg3 mi
1:20 AM59 °FPassing clouds.3 mph94%30.07 "Hg4 mi
12:20 AM59 °FPassing clouds.6 mph94%30.07 "Hg4 mi
11:20 PM
Tue, Aug 4
61 °FPassing clouds.6 mph94%30.04 "HgN/A
10:20 PM63 °FPartly cloudy.3 mph83%30.04 "HgN/A
9:20 PM63 °FPartly sunny.9 mph88%30.01 "HgN/A
8:20 PM63 °FLight rain. Partly sunny.15 mph88%29.98 "HgN/A
8:04 PM64 °FSprinkles. Partly sunny.18 mph88%29.98 "HgN/A
7:20 PM68 °FScattered showers. Broken clouds.9 mph88%29.95 "Hg5 mi
6:20 PM68 °FScattered showers. Partly sunny.7 mph88%29.95 "Hg6 mi
5:20 PM68 °FLight rain. Partly sunny.2 mph88%29.95 "HgN/A
4:20 PM72 °FRain. Partly sunny.18 mph69%29.92 "HgN/A
3:20 PM79 °FBroken clouds.18 mph51%29.89 "HgN/A
2:20 PM81 °FPartly sunny.15 mph45%29.86 "HgN/A
1:20 PM84 °FBroken clouds.15 mph37%29.86 "HgN/A
12:20 PM84 °FPartly sunny.6 mph40%29.83 "HgN/A
11:20 AM82 °FPartly sunny.5 mph42%29.83 "HgN/A
10:20 AM81 °FPartly sunny.7 mph48%29.86 "HgN/A
9:20 AM79 °FPartly sunny.12 mph48%29.86 "HgN/A
8:20 AM77 °FPartly sunny.12 mph51%29.86 "HgN/A
Weather by CustomWeather, © 2015

See weather overviewHow to use our weather pages